Provincetown, MA

2:49 AM EDT on March 30, 2017 (GMT -0400)
Provincetown Municipal

Weather History for KPVC - January, 2013

Change the Weather History Date:

Saturday, January 5, 2013

  Actual Average Record
Temperature  
Mean Temperature 33 °F -  
Max Temperature 42 °F 37 °F 60 °F (2007)
Min Temperature 24 °F 27 °F 16 °F (1958)
Degree Days  
Heating Degree Days 32    
Moisture  
Dew Point 23 °F    
Average Humidity 60    
Maximum Humidity 86    
Minimum Humidity 42    
Precipitation  
Precipitation 0.00 in - - ()
Sea Level Pressure  
Sea Level Pressure 30.10 in    
Wind  
Wind Speed 16 mph (WNW)    
Max Wind Speed 23 mph    
Max Gust Speed 31 mph    
Visibility 10 miles    
Events      
Averages and records for this station are not official NWS values.
T = Trace of Precipitation, MM = Missing Value Source: NWS Daily Summary

Daily Weather History Graph

Daily Weather History Graph

Search for Another Location

Airport or City:

Trip Planner

Search our weather history database for the weather conditions in past years. The results will help you decide how hot, cold, wet, or windy it might be!

Date:

Astronomy

Jan. 05, 2013 Rise Set
Actual Time 7:09 AM EST 4:23 PM EST
Civil Twilight 6:37 AM EST 4:55 PM EST
Nautical Twilight 6:02 AM EST 5:30 PM EST
Astronomical Twilight 5:28 AM EST 6:04 PM EST
Moon 12:08 AM EST (1/5) 11:14 AM EST (1/5)
Length of Visible Light 10h 17m
Length of Day
9h 14m
Last Quarter, 44% of the Moon is Illuminated
Jan 5
Last Quarter
Jan 11
New
Jan 18
First Quarter
Jan 26
Full
Feb 3
Last Quarter

Hourly Weather History & Observations

Time (EST) Temp. Windchill Dew Point Humidity Pressure Visibility Wind Dir Wind Speed Gust Speed Precip Events Conditions
12:15 AM 35.6 °F 25.2 °F 21.2 °F 56% 29.87 in 10.0 mi West 18.4 mph 24.2 mph N/A   Scattered Clouds
12:35 AM 35.6 °F 24.8 °F 24.8 °F 65% 29.87 in 10.0 mi West 19.6 mph 24.2 mph N/A   Clear
1:35 AM 35.6 °F 24.8 °F 21.2 °F 56% 29.88 in 10.0 mi West 19.6 mph 25.3 mph N/A   Partly Cloudy
1:55 AM 35.6 °F 24.5 °F 23.0 °F 60% 29.89 in 10.0 mi West 20.7 mph 26.5 mph N/A   Mostly Cloudy
2:15 AM 35.6 °F 24.5 °F 23.0 °F 60% 29.90 in 10.0 mi West 20.7 mph 29.9 mph N/A   Scattered Clouds
2:35 AM 35.6 °F 24.8 °F 21.2 °F 56% 29.91 in 10.0 mi West 19.6 mph 26.5 mph N/A   Clear
2:55 AM 35.6 °F 24.0 °F 23.0 °F 60% 29.91 in 10.0 mi West 23.0 mph 27.6 mph N/A   Clear
3:15 AM 35.6 °F 24.8 °F 24.8 °F 65% 29.91 in 10.0 mi West 19.6 mph 28.8 mph N/A   Clear
3:35 AM 35.6 °F 24.0 °F 24.8 °F 65% 29.91 in 10.0 mi West 23.0 mph 28.8 mph N/A   Partly Cloudy
4:16 AM 35.6 °F 24.2 °F 24.8 °F 65% 29.92 in 10.0 mi West 21.9 mph 27.6 mph N/A   Scattered Clouds
4:35 AM 35.6 °F 25.9 °F 24.8 °F 65% 29.93 in 10.0 mi West 16.1 mph 27.6 mph N/A   Clear
5:15 AM 35.6 °F 24.5 °F 23.0 °F 60% 29.94 in 10.0 mi West 20.7 mph 25.3 mph N/A   Clear
5:55 AM 35.6 °F 24.8 °F 24.8 °F 65% 29.97 in 10.0 mi West 19.6 mph 27.6 mph N/A   Clear
6:35 AM 35.6 °F 24.0 °F 24.8 °F 65% 29.99 in 10.0 mi West 23.0 mph 31.1 mph N/A   Clear
6:55 AM 35.6 °F 24.5 °F 24.8 °F 65% 30.01 in 10.0 mi West 20.7 mph 28.8 mph N/A   Clear
7:15 AM 35.6 °F 24.2 °F 24.8 °F 65% 30.02 in 10.0 mi West 21.9 mph 26.5 mph N/A   Clear
7:55 AM 35.6 °F 24.8 °F 24.8 °F 65% 30.04 in 10.0 mi West 19.6 mph 26.5 mph N/A   Clear
8:15 AM 35.6 °F 24.5 °F 24.8 °F 65% 30.06 in 10.0 mi West 20.7 mph 28.8 mph N/A   Clear
9:15 AM 37.4 °F 26.6 °F 24.8 °F 60% 30.09 in 10.0 mi West 21.9 mph 28.8 mph N/A   Clear
9:55 AM 37.4 °F 27.5 °F 26.6 °F 65% 30.12 in 10.0 mi West 18.4 mph 25.3 mph N/A   Clear
10:15 AM 39.2 °F 29.6 °F 26.6 °F 61% 30.13 in 10.0 mi West 19.6 mph 27.6 mph N/A   Clear
10:55 AM 39.2 °F 30.2 °F 24.8 °F 56% 30.13 in 10.0 mi West 17.3 mph 23.0 mph N/A   Clear
11:15 AM 39.2 °F 29.8 °F 24.8 °F 56% 30.12 in 10.0 mi West 18.4 mph 24.2 mph N/A   Clear
12:15 PM 41.0 °F 32.2 °F 24.8 °F 53% 30.13 in 10.0 mi NW 18.4 mph 24.2 mph N/A   Partly Cloudy
12:55 PM 41.0 °F 33.1 °F 24.8 °F 53% 30.14 in 10.0 mi NW 15.0 mph 21.9 mph N/A   Clear
1:16 PM 41.0 °F 33.1 °F 23.0 °F 49% 30.15 in 10.0 mi WNW 15.0 mph 24.2 mph N/A   Clear
1:35 PM 42.8 °F 35.8 °F 23.0 °F 46% 30.15 in 10.0 mi NW 13.8 mph 21.9 mph N/A   Clear
1:55 PM 42.8 °F 36.2 °F 23.0 °F 46% 30.15 in 10.0 mi NW 12.7 mph 20.7 mph N/A   Clear
2:15 PM 42.8 °F 37.0 °F 23.0 °F 46% 30.15 in 10.0 mi NW 10.4 mph 17.3 mph N/A   Clear
2:35 PM 42.8 °F 35.8 °F 21.2 °F 42% 30.16 in 10.0 mi WNW 13.8 mph 20.7 mph N/A   Clear
2:56 PM 41.0 °F 34.7 °F 21.2 °F 45% 30.16 in 10.0 mi NNW 10.4 mph - N/A   Clear
3:55 PM 39.2 °F 32.5 °F 19.4 °F 45% 30.19 in 10.0 mi NNW 10.4 mph - N/A   Clear
4:15 PM 39.2 °F 32.5 °F 21.2 °F 49% 30.19 in 10.0 mi NNW 10.4 mph - N/A   Clear
4:35 PM 39.2 °F 37.0 °F 23.0 °F 52% 30.21 in 10.0 mi NNE 3.5 mph - N/A   Clear
4:55 PM 37.4 °F 33.8 °F 24.8 °F 60% 30.22 in 10.0 mi NNE 4.6 mph - N/A   Clear
5:16 PM 37.4 °F 32.8 °F 23.0 °F 56% 30.22 in 10.0 mi NNW 5.8 mph - N/A   Clear
6:15 PM 37.4 °F 32.1 °F 21.2 °F 52% 30.24 in 10.0 mi NNW 6.9 mph - N/A   Clear
6:35 PM 37.4 °F 32.8 °F 19.4 °F 48% 30.24 in 10.0 mi NNW 5.8 mph - N/A   Clear
7:15 PM 37.4 °F 32.8 °F 19.4 °F 48% 30.26 in 10.0 mi NNW 5.8 mph - N/A   Clear
7:35 PM 37.4 °F 32.8 °F 19.4 °F 48% 30.27 in 10.0 mi NNW 5.8 mph - N/A   Clear
8:15 PM 37.4 °F 33.8 °F 21.2 °F 52% 30.26 in 10.0 mi North 4.6 mph - N/A   Clear
8:55 PM 26.6 °F 22.6 °F 17.6 °F 69% 30.26 in 10.0 mi ENE 3.5 mph - N/A   Clear
9:15 PM 26.6 °F - 19.4 °F 74% 30.25 in 10.0 mi Calm Calm - N/A   Clear
9:55 PM 26.6 °F 21.2 °F 19.4 °F 74% 30.25 in 10.0 mi ESE 4.6 mph - N/A   Clear
10:15 PM 24.8 °F - 19.4 °F 80% 30.25 in 10.0 mi Calm Calm - N/A   Clear
10:35 PM 24.8 °F - 17.6 °F 74% 30.25 in 10.0 mi Calm Calm - N/A   Clear
10:55 PM 24.8 °F 20.5 °F 19.4 °F 80% 30.26 in 10.0 mi South 3.5 mph - N/A   Clear
11:16 PM 24.8 °F 20.5 °F 21.2 °F 86% 30.24 in 10.0 mi SSE 3.5 mph - N/A   Clear
11:55 PM 24.8 °F 20.5 °F 21.2 °F 86% 30.23 in 10.0 mi SSE 3.5 mph - N/A   Clear